Wind_Speed
95 97 101 101 103 103 107 112 109 108 110 124 127 115 95 105 101 91 98 105 107 110 107 102 94 94 89 83 79 77 77 70 67 67 69 74 85 88 82 76 81 79 79 77
83 95 101 104 106 107 108 109 108 112 118 123 118 116 109 104 107 108 105 102 98 97 101 106 104 105 97 90 86 83 82 84 85 84 83 82 82 82 78 77 74 75 76 75
78 83 89 97 104 111 112 114 113 115 116 123 119 120 114 111 114 110 105 102 109 108 99 95 92 89 90 89 81 76 83 89 87 85 79 77 82 79 76 72 71 74 75 74
72 80 86 92 95 104 111 117 119 120 121 119 120 119 114 110 107 108 108 107 107 105 105 104 96 91 84 84 82 76 74 72 73 72 72 72 73 71 67 68 69 73 73 77
67 74 80 84 92 102 104 110 117 122 122 123 123 124 109 111 106 109 111 112 109 108 109 105 104 98 94 93 83 67 65 64 62 69 68 69 64 64 67 73 74 75 78 72
66 72 78 80 87 96 102 108 113 114 116 121 116 125 117 113 111 109 111 116 114 111 111 106 97 95 91 87 78 68 67 67 68 67 69 67 66 71 71 74 73 71 67 66
69 75 82 82 86 97 98 100 104 109 112 109 110 121 113 110 115 114 115 117 118 117 112 108 101 94 93 88 83 78 74 71 73 69 70 73 73 73 72 67 62 61 61 61
70 72 83 81 82 87 88 90 93 101 104 102 106 109 102 92 100 109 114 115 118 117 110 110 106 105 100 91 88 89 78 78 76 75 76 74 73 73 61 56 55 56 56 55
67 67 75 71 70 73 78 78 81 86 91 92 93 93 90 89 96 100 105 109 118 110 108 104 104 104 96 89 85 83 83 82 78 78 72 69 67 59 52 51 52 52 52 51
63 60 68 56 55 60 66 67 68 70 76 75 76 78 78 86 84 89 99 104 100 103 102 101 100 100 93 87 83 78 79 76 71 66 64 59 56 50 49 47 48 50 49 49
51 51 52 42 46 49 51 55 59 65 70 63 61 62 76 75 74 77 82 88 98 93 89 91 91 91 88 83 79 74 70 67 62 60 56 53 50 48 46 46 46 46 47 46
43 41 39 36 39 40 43 46 49 54 57 54 51 59 58 62 67 66 76 87 83 77 82 78 76 78 79 79 73 68 63 58 56 53 51 49 47 44 44 45 45 43 42 40
39 34 33 33 34 35 36 37 38 42 44 46 45 49 51 57 62 66 70 66 68 57 66 74 72 71 70 65 62 60 59 55 51 50 48 44 41 43 46 45 42 40 39 38
34 29 27 27 30 27 27 28 28 29 37 40 40 44 49 55 56 52 52 59 55 63 64 66 64 61 58 54 50 50 48 47 46 46 44 42 42 44 44 41 37 37 36 34
29 24 19 19 21 20 20 20 22 29 34 33 36 43 42 47 51 46 46 42 46 62 62 57 49 47 50 43 38 34 37 38 39 38 37 39 40 39 36 32 34 34 32 31
21 18 16 14 14 15 16 16 23 26 31 31 35 41 44 50 48 34 37 43 56 59 52 48 48 41 42 34 28 30 33 32 33 33 36 37 34 30 28 30 30 28 28 30
17 15 14 13 13 10 11 14 22 28 33 28 34 39 45 36 21 31 45 52 54 54 50 49 46 36 31 29 31 30 33 32 32 33 33 28 24 25 26 24 23 25 27 27
15 11 12 11 11 11 11 13 21 25 29 31 34 35 29 24 25 36 50 50 52 51 52 51 48 36 29 36 33 34 31 30 31 30 24 22 23 22 19 20 22 24 22 14
12 11 11 9 11 9 11 11 21 25 31 28 29 29 32 36 36 45 51 49 46 50 54 55 49 45 42 38 36 33 32 31 28 21 21 21 21 17 16 20 20 20 12 6
10 12 13 9 9 9 9 13 20 26 28 31 31 32 43 49 52 50 52 59 61 60 57 54 42 36 36 37 32 31 30 27 22 21 20 18 15 13 16 19 19 15 6 9
8 14 14 10 7 7 8 11 17 27 30 31 35 44 49 50 48 51 53 59 58 62 60 44 29 32 33 33 33 31 29 26 24 20 18 12 13 15 18 17 15 11 5 10
9 11 13 11 9 6 7 10 15 23 28 31 41 47 51 58 60 58 63 67 68 69 51 37 26 22 29 32 31 30 29 26 22 18 10 11 13 16 15 18 13 6 5 7
8 9 10 12 10 6 6 10 15 20 28 38 43 49 62 68 67 68 72 75 74 59 52 42 41 33 32 34 32 31 29 24 20 15 8 12 13 13 15 13 7 6 8 8
8 8 12 11 8 7 7 10 15 23 33 42 48 54 66 73 75 80 81 77 71 59 48 34 33 34 42 38 33 33 27 23 18 15 14 15 14 12 12 2 4 6 6 5
6 6 8 9 6 4 6 13 24 33 43 52 58 63 64 79 85 85 76 68 61 59 48 46 34 52 44 39 37 31 26 22 19 13 14 15 11 11 6 8 12 13 12 11
4 7 8 7 4 3 12 21 32 45 54 59 65 67 79 84 87 75 73 61 49 52 52 50 48 38 37 37 35 30 26 23 16 14 14 12 10 11 8 9 16 20 19 18
Wind_Direction
245 245 244 245 245 243 243 242 241 241 241 241 245 242 240 240 243 245 252 254 252 252 255 255 253 256 257 257 262 260 260 261 261 264 269 273 279 282 286 292 297 299 301 301
248 247 246 246 246 246 245 245 243 241 241 243 244 243 236 238 244 245 246 247 253 257 256 253 254 256 255 257 260 262 263 264 266 269 272 276 277 278 287 292 297 297 297 298
251 250 250 249 248 246 246 247 245 244 244 244 244 245 243 238 238 245 249 249 248 249 254 256 257 260 260 259 259 260 264 264 268 267 271 278 279 280 285 291 295 294 295 300
257 254 252 252 250 250 248 248 245 246 245 245 246 245 244 244 243 241 242 246 248 248 249 250 252 255 259 261 259 256 261 265 268 272 274 279 282 285 289 290 293 295 298 301
262 257 256 255 254 253 251 250 250 248 246 246 247 248 243 245 243 243 242 243 246 247 248 249 248 252 256 258 262 259 259 263 267 269 276 277 278 282 291 291 292 294 296 296
269 267 262 259 257 254 253 252 251 251 251 249 247 249 246 244 243 243 244 241 242 244 249 249 248 249 253 255 256 256 259 260 262 268 273 275 280 285 291 289 291 293 293 294
268 268 266 264 261 258 255 255 254 254 253 252 249 249 248 245 244 242 241 242 242 243 246 251 249 250 252 254 256 259 258 261 263 266 274 275 280 285 288 288 289 290 291 292
271 270 270 265 262 261 261 257 256 255 254 253 250 252 251 247 248 248 244 243 242 244 244 247 252 252 253 255 257 258 259 261 263 268 273 275 279 285 283 284 286 288 288 290
278 278 271 269 265 261 258 256 253 253 252 250 251 252 250 246 241 242 242 243 243 242 244 246 250 252 253 255 256 256 257 259 264 269 272 274 279 279 280 283 285 284 287 289
284 283 278 277 268 261 257 258 256 254 253 251 248 248 249 244 240 237 237 240 243 241 242 242 244 247 252 254 253 253 255 259 262 264 267 270 275 277 278 280 279 283 286 289
292 285 281 273 267 261 258 256 253 250 250 249 248 245 243 242 240 238 237 237 238 237 238 238 241 245 247 247 248 250 255 256 257 260 263 267 272 275 277 275 278 282 286 287
295 286 282 272 265 259 254 253 253 253 253 253 247 244 244 240 238 233 232 232 235 230 233 236 235 237 240 243 247 252 253 255 256 258 259 265 271 272 270 272 275 279 282 281
300 290 281 271 265 260 256 255 254 251 253 250 243 237 235 235 233 229 231 236 230 220 225 229 228 231 236 241 245 247 248 252 255 257 259 260 259 263 267 270 274 278 275 279
304 292 282 277 271 265 257 248 245 240 240 236 236 229 226 227 229 226 224 225 218 215 216 220 219 225 232 235 239 243 247 247 249 251 251 249 249 256 262 268 272 272 276 276
306 302 292 285 276 264 248 235 230 224 223 224 222 227 223 227 224 218 219 213 211 213 210 208 208 216 225 227 234 236 237 239 238 239 240 243 248 253 261 265 267 273 276 281
314 315 312 300 283 265 240 226 210 202 216 206 206 209 212 219 225 207 196 188 206 208 200 194 191 200 215 217 222 227 228 225 224 227 234 239 245 253 256 263 269 273 281 289
336 332 321 308 298 259 222 199 208 212 214 196 202 208 212 216 206 197 187 191 194 195 184 177 178 184 202 209 214 214 215 215 216 224 231 239 243 247 255 266 270 280 289 294
336 334 326 300 279 255 241 201 199 209 210 201 200 204 202 184 176 182 188 187 182 180 171 167 169 170 206 197 203 206 205 212 217 222 228 228 235 245 253 263 279 287 291 293
335 337 325 309 291 258 235 205 193 203 214 202 201 185 165 162 162 183 180 176 170 167 164 160 167 174 197 194 195 198 204 210 215 214 214 227 234 237 258 276 283 291 278 235
342 335 333 310 292 274 232 206 191 202 205 197 192 169 163 164 172 169 170 163 163 160 157 155 166 177 191 193 194 199 206 209 203 202 220 225 225 249 274 282 292 278 226 237
356 347 340 323 298 276 241 213 195 192 208 185 172 168 169 168 155 164 162 153 153 148 146 150 166 177 193 196 202 206 209 202 196 206 220 231 228 262 281 287 287 262 197 243
5 355 352 329 296 275 245 211 191 190 191 173 171 170 166 157 155 156 153 147 145 142 140 142 155 209 197 202 202 205 199 193 196 207 225 223 245 266 279 291 272 241 217 231
359 349 338 329 300 262 216 203 188 180 174 170 170 166 161 151 153 152 145 142 139 140 137 138 149 219 214 213 207 201 190 194 199 211 231 226 256 275 285 291 257 186 200 227
10 341 346 332 303 274 195 189 170 170 167 163 161 163 162 152 149 143 143 141 137 139 143 147 179 217 222 212 203 193 195 197 208 217 239 237 260 278 300 297 138 168 175 202
8 348 356 333 299 250 184 163 164 162 159 157 157 163 161 146 144 142 138 135 136 140 156 156 195 215 210 204 198 195 197 202 212 224 241 240 259 284 277 192 179 202 203 211
8 5 10 358 308 166 152 159 159 158 155 155 156 156 146 143 141 135 136 134 136 145 174 189 194 193 198 198 198 199 200 207 218 237 237 251 271 289 286 235 210 206 213 219
Height
10598 10603 10606 10607 10612 10624 10623 10630 10647 10657 10654 10639 10636 10671 10712 10706 10701 10712 10716 10720 10728 10739 10746 10753 10758 10764 10778 10793 10800 10799 10793 10797 10798 10802 10806 10804 10799 10800 10798 10795 10790 10789 10784 10779
10577 10580 10582 10588 10595 10598 10599 10605 10621 10627 10626 10610 10627 10647 10684 10686 10685 10692 10699 10704 10712 10719 10726 10734 10741 10746 10763 10777 10785 10782 10784 10782 10784 10790 10790 10788 10785 10789 10789 10786 10782 10778 10774 10768
10559 10559 10560 10563 10569 10571 10573 10578 10591 10592 10593 10591 10619 10617 10644 10664 10668 10676 10682 10690 10691 10701 10709 10716 10723 10733 10743 10758 10770 10768 10769 10770 10773 10775 10778 10775 10774 10776 10777 10779 10773 10766 10763 10758
10539 10536 10537 10540 10545 10539 10545 10547 10556 10559 10566 10579 10577 10587 10616 10639 10653 10657 10665 10665 10670 10681 10688 10697 10708 10717 10728 10736 10745 10756 10761 10763 10761 10759 10764 10764 10764 10764 10767 10766 10763 10755 10753 10746
10517 10514 10513 10516 10516 10511 10524 10518 10524 10532 10541 10548 10559 10559 10611 10608 10631 10635 10641 10646 10651 10659 10664 10676 10692 10705 10709 10716 10733 10743 10747 10751 10752 10748 10750 10753 10758 10755 10758 10752 10751 10746 10740 10734
10497 10491 10488 10492 10490 10485 10489 10491 10493 10502 10509 10517 10551 10535 10568 10588 10601 10609 10615 10620 10626 10634 10638 10655 10674 10687 10700 10705 10716 10726 10736 10738 10738 10740 10740 10744 10747 10744 10748 10739 10737 10734 10728 10722
10478 10469 10458 10464 10464 10453 10461 10466 10468 10468 10475 10496 10509 10489 10529 10567 10567 10578 10583 10591 10603 10612 10629 10637 10657 10670 10680 10691 10703 10712 10719 10722 10724 10728 10731 10731 10737 10732 10735 10727 10725 10721 10716 10710
10454 10451 10432 10433 10436 10433 10434 10434 10440 10439 10447 10463 10465 10475 10507 10537 10543 10553 10565 10572 10580 10592 10613 10623 10637 10646 10660 10682 10688 10693 10703 10705 10712 10716 10717 10720 10723 10724 10721 10717 10713 10710 10705 10701
10425 10425 10407 10407 10406 10404 10402 10408 10411 10414 10419 10427 10443 10457 10473 10498 10510 10523 10527 10537 10545 10581 10592 10611 10617 10627 10647 10663 10671 10676 10686 10690 10700 10703 10706 10709 10709 10711 10707 10707 10701 10699 10695 10691
10403 10400 10377 10386 10382 10379 10381 10386 10391 10396 10399 10405 10421 10434 10449 10453 10474 10491 10497 10512 10532 10543 10570 10593 10600 10607 10630 10644 10650 10662 10667 10680 10687 10693 10694 10698 10699 10698 10698 10696 10692 10687 10685 10682
10383 10372 10362 10366 10360 10361 10366 10368 10370 10370 10373 10387 10402 10417 10412 10429 10449 10470 10483 10496 10497 10526 10549 10561 10585 10606 10618 10619 10628 10645 10658 10667 10674 10679 10684 10686 10687 10686 10686 10685 10682 10679 10675 10672
10361 10355 10350 10349 10345 10347 10349 10352 10354 10356 10362 10374 10390 10394 10403 10415 10424 10445 10448 10451 10481 10514 10531 10554 10571 10585 10595 10606 10625 10639 10645 10655 10660 10667 10671 10674 10676 10675 10673 10673 10673 10672 10667 10664
10348 10342 10337 10335 10334 10336 10339 10341 10346 10351 10356 10363 10370 10377 10386 10393 10401 10415 10435 10466 10478 10503 10521 10533 10554 10571 10585 10603 10617 10625 10634 10643 10650 10655 10659 10663 10665 10665 10663 10663 10663 10661 10659 10657
10337 10332 10328 10325 10324 10328 10331 10332 10336 10342 10345 10353 10361 10363 10369 10378 10391 10412 10431 10446 10469 10483 10502 10521 10544 10566 10584 10597 10607 10616 10626 10631 10638 10644 10648 10652 10653 10654 10654 10654 10654 10652 10650 10648
10330 10324 10320 10318 10318 10319 10321 10322 10327 10326 10333 10345 10353 10356 10369 10373 10385 10406 10423 10447 10464 10477 10490 10516 10547 10565 10579 10592 10601 10608 10615 10620 10626 10632 10637 10640 10643 10645 10647 10647 10646 10645 10643 10641
10323 10319 10315 10313 10313 10314 10315 10318 10318 10320 10325 10334 10342 10346 10361 10365 10379 10405 10420 10434 10453 10473 10495 10519 10541 10560 10574 10587 10596 10604 10606 10612 10617 10623 10628 10632 10636 10638 10639 10640 10640 10638 10636 10634
10319 10315 10312 10309 10308 10309 10311 10316 10315 10315 10318 10332 10336 10343 10350 10366 10385 10403 10417 10427 10448 10473 10496 10517 10541 10561 10576 10584 10591 10595 10598 10605 10610 10615 10620 10625 10628 10631 10633 10634 10634 10632 10630 10627
10317 10313 10310 10308 10307 10306 10307 10313 10313 10315 10321 10327 10331 10344 10360 10374 10387 10405 10416 10431 10449 10474 10495 10516 10538 10562 10573 10580 10586 10588 10594 10599 10604 10610 10615 10619 10623 10627 10629 10629 10628 10626 10623 10621
10314 10310 10308 10306 10304 10305 10306 10311 10314 10314 10316 10330 10338 10346 10358 10370 10385 10399 10412 10436 10463 10482 10496 10516 10537 10552 10566 10573 10578 10584 10590 10596 10601 10606 10611 10616 10620 10623 10624 10623 10623 10620 10619 10618
10312 10310 10307 10305 10303 10302 10304 10307 10313 10314 10318 10326 10334 10350 10356 10362 10372 10394 10415 10430 10455 10477 10502 10522 10537 10549 10560 10568 10575 10581 10587 10592 10597 10604 10608 10612 10615 10619 10619 10619 10618 10616 10614 10615
10310 10308 10306 10303 10301 10302 10302 10305 10309 10314 10314 10325 10336 10350 10360 10372 10395 10413 10431 10447 10471 10488 10508 10527 10543 10549 10560 10567 10573 10579 10585 10590 10597 10602 10605 10609 10613 10614 10615 10614 10613 10611 10610 10611
10309 10306 10305 10303 10301 10300 10301 10303 10307 10312 10318 10327 10337 10349 10363 10378 10395 10418 10437 10451 10477 10496 10516 10533 10550 10552 10563 10568 10572 10579 10583 10590 10595 10599 10602 10606 10609 10611 10610 10610 10608 10607 10607 10608
10308 10306 10304 10303 10302 10301 10302 10303 10307 10314 10320 10328 10340 10350 10364 10381 10403 10423 10442 10463 10485 10507 10522 10537 10548 10561 10566 10569 10575 10578 10583 10588 10593 10596 10600 10604 10606 10607 10606 10604 10603 10604 10606 10608
10308 10307 10304 10303 10302 10303 10303 10306 10310 10317 10324 10331 10343 10358 10368 10386 10408 10429 10450 10469 10485 10508 10524 10540 10553 10558 10561 10572 10574 10577 10582 10586 10590 10594 10597 10601 10603 10603 10601 10600 10601 10604 10606 10606
10308 10307 10305 10303 10303 10305 10307 10310 10312 10317 10327 10337 10350 10366 10381 10399 10419 10439 10460 10479 10495 10515 10537 10534 10541 10556 10566 10571 10572 10577 10580 10585 10588 10592 10595 10598 10600 10599 10598 10599 10600 10603 10603 10605
10308 10307 10305 10305 10304 10307 10310 10313 10318 10324 10333 10346 10361 10382 10397 10415 10434 10450 10466 10484 10501 10518 10537 10546 10553 10559 10565 10570 10572 10577 10580 10584 10587 10590 10593 10594 10595 10595 10594 10595 10596 10597 10600 10602